Location: Lake Harris Campground
(43.9775°N, 74.1317°W)
Time: 01:23:35
(UTC-04:00)

ISS - All Passes

Search period start: 04 August 2015 00:00
Search period end: 14 August 2015 00:00
Orbit: 401 x 403 km, 51.6° (Epoch: 03 August)

Date Brightness Start Highest point End Pass type
(mag) Time Alt. Az. Time Alt. Az. Time Alt. Az.
04 Aug - 01:15:10 10° NW 01:18:09 32° NNE 01:21:09 10° E visible
04 Aug - 02:51:31 10° WNW 02:54:41 48° SW 02:57:50 10° SE night (unlit)
04 Aug - 19:32:03 10° S 19:34:37 22° SE 19:37:15 10° E daylight
04 Aug - 21:07:40 10° WSW 21:10:52 53° NNW 21:14:05 10° NE visible
04 Aug - 22:45:10 10° WNW 22:47:48 22° N 22:50:25 10° NE visible
05 Aug - 00:22:09 10° NW 00:24:56 25° NNE 00:27:44 10° ENE visible
05 Aug - 01:58:25 10° WNW 02:01:41 89° SW 02:04:57 10° ESE night (unlit)
05 Aug - 03:36:17 10° WSW 03:37:43 12° SW 03:39:02 10° SSW night (unlit)
05 Aug - 18:40:28 10° SSE 18:41:46 12° SE 18:43:11 10° ESE daylight
05 Aug - 20:14:32 10° WSW 20:17:47 89° SSE 20:21:04 10° ENE daylight
05 Aug - 21:51:45 10° WNW 21:54:32 25° NNW 21:57:20 10° NE visible
05 Aug - 23:29:04 10° NW 23:31:41 22° N 23:34:18 10° ENE visible
06 Aug - 01:05:24 10° NW 01:08:37 53° NNE 01:11:49 10° ESE visible
06 Aug - 02:42:13 10° W 02:44:51 22° SW 02:47:26 10° S night (unlit)
06 Aug - 19:21:38 10° SW 19:24:46 48° SE 19:27:56 10° ENE daylight
06 Aug - 20:58:19 10° W 21:01:18 32° NNW 21:04:18 10° NE visible
06 Aug - 22:35:51 10° NW 22:38:23 20° N 22:40:57 10° NE visible
07 Aug - 00:12:24 10° NW 00:15:27 35° NNE 00:18:30 10° E visible
07 Aug - 01:48:49 10° WNW 01:51:55 40° SW 01:55:00 10° SSE night (unlit)
07 Aug - 18:29:04 10° SSW 18:31:49 26° SE 18:34:37 10° E daylight
07 Aug - 20:04:57 10° W 20:08:07 47° NNW 20:11:17 10° NE daylight
07 Aug - 21:42:30 10° WNW 21:45:05 21° N 21:47:41 10° NE visible
07 Aug - 23:19:23 10° NW 23:22:13 27° NNE 23:25:04 10° ENE visible
08 Aug - 00:55:39 10° WNW 00:58:55 77° SW 01:02:10 10° SE visible
08 Aug - 02:34:25 10° WSW 02:34:52 10° SW 02:35:12 10° SW night (unlit)
08 Aug - 17:37:07 10° SSE 17:38:55 14° SE 17:40:48 10° E daylight
08 Aug - 19:11:44 10° WSW 19:14:59 79° NNW 19:18:15 10° ENE daylight
08 Aug - 20:49:03 10° WNW 20:51:47 24° NNW 20:54:31 10° NE visible
08 Aug - 22:26:17 10° NW 22:28:56 22° N 22:31:36 10° ENE visible
09 Aug - 00:02:35 10° NW 00:05:49 61° NNE 00:09:03 10° ESE visible
09 Aug - 01:39:34 10° W 01:41:59 19° SW 01:44:21 10° S night (unlit)
09 Aug - 18:18:43 10° SW 18:21:55 57° SE 18:25:08 10° ENE daylight
09 Aug - 19:55:34 10° W 19:58:30 30° NNW 20:01:27 10° NE daylight
09 Aug - 21:33:03 10° NW 21:35:37 21° N 21:38:10 10° NE visible
09 Aug - 23:09:33 10° NW 23:12:38 39° NNE 23:15:43 10° E visible
10 Aug - 00:46:02 10° WNW 00:49:02 34° SW 00:52:02 10° SSE visible
10 Aug - 17:26:01 10° SSW 17:28:54 30° SE 17:31:50 10° ENE daylight
10 Aug - 19:02:09 10° W 19:05:16 42° NNW 19:08:24 10° NE daylight
10 Aug - 20:39:42 10° NW 20:42:16 21° N 20:44:50 10° NE visible
10 Aug - 22:16:29 10° NW 22:19:23 28° NNE 22:22:17 10° E visible
10 Aug - 23:52:47 10° WNW 23:56:01 65° SW 23:59:14 10° SE visible
11 Aug - 16:33:49 10° S 16:35:57 17° SE 16:38:10 10° E daylight
11 Aug - 18:08:50 10° WSW 18:12:04 68° NNW 18:15:20 10° NE daylight
11 Aug - 19:46:14 10° WNW 19:48:55 23° N 19:51:37 10° NE daylight
11 Aug - 21:23:22 10° NW 21:26:04 23° N 21:28:47 10° ENE visible
11 Aug - 22:59:38 10° NW 23:02:54 70° NNE 23:06:09 10° ESE visible
12 Aug - 00:36:52 10° W 00:39:01 16° SW 00:41:06 10° S night (unlit)
12 Aug - 17:15:44 10° SW 17:18:57 67° SE 17:22:12 10° ENE daylight
12 Aug - 18:52:43 10° WNW 18:55:36 28° NNW 18:58:29 10° NE daylight
12 Aug - 20:30:09 10° NW 20:32:43 21° N 20:35:18 10° NE visible
12 Aug - 22:06:34 10° NW 22:09:42 43° NNE 22:12:51 10° E visible
12 Aug - 23:43:09 10° WNW 23:46:03 29° SW 23:48:56 10° SSE visible
13 Aug - 16:22:53 10° SSW 16:25:54 35° SE 16:28:56 10° ENE daylight
13 Aug - 17:59:14 10° W 18:02:18 38° NNW 18:05:23 10° NE daylight
13 Aug - 19:36:47 10° NW 19:39:20 21° N 19:41:54 10° NE daylight
13 Aug - 21:13:29 10° NW 21:16:26 30° NNE 21:19:23 10° E visible
13 Aug - 22:49:48 10° WNW 22:53:01 55° SW 22:56:12 10° SE visible
